Location: Arnolds Mill
(42.3415°N, 73.5951°W)
Time: 05:12:29
(UTC+00:00)

Oscar 11 - Pass Details

Date: 10 May 2026
Orbit: 591 x 601 km, 97.8° (Epoch: 11 June)

Event Time Altitude Azimuth Distance (km) Brightness Sun altitude
Rises 07:39:17 0° 25° (NNE) 2,859 11.9 -18.6°
Reaches altitude 10° 07:41:48 10° 39° (NE) 1,951 10.9 -18.2°
Maximum altitude 07:45:17 25° 95° (E) 1,239 9.0 -17.8°
Drops below altitude 10° 07:48:45 10° 150° (SSE) 1,936 9.4 -17.4°
Enters shadow 07:49:50 - 158° (SSE) 2,315 9.8 -17.2°
